User: anonymous   Login
Location: Unspecified
(0.0000°N, 0.0000°E)
Time: 18:25:13
(UTC+01:00)
Language:

ASC 2 Rocket - Orbit

View from above orbital plane
View from above orbital plane
View from above satellite
View from above satellite

Ground track
Ground track

The orbit data is extracted from the following two-line orbital elements,

1 21228U 91028B   15058.85293347  .00000402  00000-0  10313-3 0  9992
2 21228 023.9978 308.8865 1144318 204.2321 239.6267 12.53033840 92284
Epoch (UTC): 27 February 2015 20:28:13
Eccentricity: 0.1144318
inclination: 23.9978°
perigee height: 556 km
apogee height: 2348 km
right ascension of ascending node: 308.8865°
argument of perigee: 204.2321°
revolutions per day: 12.53033840
mean anomaly at epoch: 239.6267°
orbit number at epoch: 9228

The dashed part of the orbit path shows where the satellite is in the earth's shadow,  

DLR